Location: Winthrop
(48.4780°N, 120.1850°W)
Time: 20:02:53
(UTC-08:00)

Envisat - Pass Details

Date: 05 December 2022
Orbit: 763 x 765 km, 98.2° (Epoch: 05 February)

Event Time Altitude Azimuth Distance (km) Brightness Sun altitude
Rises 03:26:03 0° 22° (NNE) 3,244 6.6 -40.4°
Reaches altitude 10° 03:28:40 10° 34° (NE) 2,313 5.9 -40.0°
Enters shadow 03:29:23 13° 39° (NE) 2,081 5.6 -39.9°
